Hourly Data Report for October 19, 2013

All times are specified in Local Standard Time (LST). Add 1 hour to adjust for Daylight Saving Time where and when it is observed.

QIKIQTARJUAQ A
NUNAVUT

67°32'48.000" N
64°01'54.000" W
5.50 m
2400577
YVM

Download Data

Hourly Data (October 2013)
Hourly Data Report for October 19, 2013
Temp Definition
°C
Dew Point Temp Definition
°C
Rel Hum Definition
%
Wind Dir Definition
10's deg

Wind Spd Definition
km/h
Visibility Definition
km
Stn Press Definition
kPa
Hmdx Definition


Wind Chill Definition


Weather Definition


TIME
00:00 Legend Double Dagger -1.8 -4.9 80   0 16.1 101.51     LegendNANA
01:00 Legend Double Dagger -0.5 -3.4 81 27 5 16.1 101.58   -2 LegendNANA
02:00 Legend Double Dagger -1.3 -5.2 75   0 16.1 101.60     LegendNANA
03:00 Legend Double Dagger -0.7 -4.1 78 24 5 16.1 101.64   -2 LegendNANA
04:00 Legend Double Dagger -1.2 -5.3 74 LegendMM 4 16.1 101.66   -3 LegendNANA
05:00
06:00 Legend Double Dagger 0.1 -4.9 69 19 8 16.1 101.73     LegendNANA
07:00 Legend Double Dagger 2.0 -5.0 60 LegendMM 4 16.1 101.74     LegendNANA
08:00 Legend Double Dagger -1.0 -4.7 76 9 5 16.1 101.76   -3 LegendNANA
09:00 Legend Double Dagger 0.8 -4.3 69 17 8 16.1 101.75     LegendNANA
10:00 Legend Double Dagger 1.9 -3.1 70 20 11 16.1 101.76     LegendNANA
11:00 Legend Double Dagger 0.6 -3.8 73 LegendMM 4 16.1 101.77     LegendNANA
12:00 Legend Double Dagger -0.4 -4.3 75 8 8 16.1 101.79   -3 LegendNANA
13:00 Legend Double Dagger 0.0 -2.8 81 8 4 16.1 101.82   -1 LegendNANA
14:00 Legend Double Dagger -0.5 -2.7 85   0 16.1 101.85     LegendNANA
15:00
16:00
17:00 Legend Double Dagger -1.5 -4.9 78 LegendMM 4 16.1 101.87   -3 LegendNANA
18:00 Legend Double Dagger -1.7 -4.1 84 14 5 16.1 101.88   -4 LegendNANA
19:00 Legend Double Dagger -3.0 -4.1 92   0 16.1 101.89     LegendNANA
20:00 Legend Double Dagger -3.8 -5.8 86 LegendMM 4 16.1 101.90   -5 LegendNANA
21:00 Legend Double Dagger -2.4 -4.8 83 LegendMM 4 16.1 101.88   -4 LegendNANA
22:00 Legend Double Dagger -1.8 -3.5 88   0 16.1 101.87     LegendNANA
23:00 Legend Double Dagger -2.6 -4.2 89   0 16.1 101.84     LegendNANA

Notes on Data Quality.

Legend

  • E = Estimated
  • M = Missing
  • NA = Not Available
  • ‡ = Partner data that is not subject to review by the National Climate Archives
Date modified: